Location: Grieser Field
(39.7333°N, 81.7975°W)
Time: 16:57:42
(UTC-04:00)

Meteor 2-1 Rocket - Visible Passes

Search period start: 29 August 2015 00:00
Search period end: 08 September 2015 00:00
Orbit: 830 x 907 km, 81.3° (Epoch: 29 August)

Date Brightness Start Highest point End Pass type
(mag) Time Alt. Az. Time Alt. Az. Time Alt. Az.
29 Aug 6.7 00:30:28 14° NE 00:30:28 14° NE 00:31:20 10° NNE visible
29 Aug 6.3 02:12:52 21° NNW 02:12:52 21° NNW 02:15:00 10° N visible
30 Aug 6.7 00:23:57 13° NE 00:23:57 13° NE 00:24:45 10° NNE visible
30 Aug 6.4 02:06:20 20° NNW 02:06:20 20° NNW 02:08:22 10° N visible
31 Aug 6.7 00:17:25 13° NE 00:17:25 13° NE 00:18:10 10° NNE visible
31 Aug 6.4 01:59:48 20° NNW 01:59:48 20° NNW 02:01:44 10° N visible
01 Sep 6.7 00:10:52 13° NE 00:10:52 13° NE 00:11:35 10° NNE visible
01 Sep 6.5 01:53:15 19° NNW 01:53:15 19° NNW 01:55:05 10° N visible
02 Sep 6.7 00:04:19 13° NE 00:04:19 13° NE 00:04:59 10° NNE visible
02 Sep 6.6 01:46:43 18° NNW 01:46:43 18° NNW 01:48:27 10° N visible
02 Sep 6.7 23:57:45 13° NNE 23:57:45 13° NNE 23:58:23 10° NNE visible
03 Sep 6.6 01:40:09 18° NNW 01:40:09 18° NNW 01:41:49 10° N visible
03 Sep 6.7 23:51:12 13° NNE 23:51:12 13° NNE 23:51:49 10° NNE visible
04 Sep 6.6 01:33:34 18° NNW 01:33:34 18° NNW 01:35:11 10° N visible
04 Sep 6.7 23:44:37 13° NNE 23:44:37 13° NNE 23:45:13 10° NNE visible
05 Sep 6.7 01:26:59 17° NNW 01:26:59 17° NNW 01:28:33 10° N visible
05 Sep 6.7 23:38:01 13° NNE 23:38:01 13° NNE 23:38:38 10° NNE visible
06 Sep 6.7 01:20:24 17° NNW 01:20:24 17° NNW 01:21:54 10° N visible
06 Sep 6.7 23:31:25 13° NNE 23:31:25 13° NNE 23:32:02 10° NNE visible
07 Sep 6.7 01:13:48 17° NNW 01:13:48 17° NNW 01:15:16 10° N visible
07 Sep 6.7 23:24:48 13° NNE 23:24:48 13° NNE 23:25:27 10° NNE visible
